Location: Feigneux
(49.2589°N, 2.9308°E)
Time: 13:17:04
(UTC+00:00)

Daily predictions for brighter satellites

Satellite Brightness Start Highest point End
(mag) Time Altitude Azimuth Time Altitude Azimuth Time Altitude Azimuth
Cosmos 1980 Rocket 3.4 20:27:45 10° NNW 20:32:54 33° NE 20:38:01 10° ESE
Cosmos 1697 Rocket 3.1 20:27:54 10° NNW 20:33:26 55° NE 20:38:56 10° SE
Cosmos 2344 4.5 20:26:47 10° NW 20:35:13 65° NE 20:46:49 10° ESE
USA 32 4.1 20:30:22 10° S 20:35:35 83° E 20:40:50 10° N
SL-8 R/B 4.0 20:31:16 10° W 20:35:58 57° SSW 20:40:42 10° ESE
TSX-5 4.5 20:34:03 10° SSW 20:38:38 71° ESE 20:44:40 10° NE
SPOT 1/Viking Rocket 4.0 20:36:33 10° S 20:41:38 62° WSW 20:46:47 10° NNW
COSMOS 2406 4.2 20:38:49 10° SSE 20:43:37 28° ESE 20:48:24 10° NE
Cosmos 2154 Rocket 4.4 20:37:37 10° N 20:43:41 51° ENE 20:49:41 10° SSE
X-37B 1.3 20:41:49 10° WSW 20:44:21 30° S 20:46:53 10° SE
Spot 2 Rocket 3.8 20:39:28 10° SE 20:44:26 56° ENE 20:49:27 10° N
Cosmos 1025 Rocket 4.2 20:41:16 10° SSW 20:45:22 45° WNW 20:49:32 10° N
SPOT 5 2.8 20:50:05 10° SSE 20:54:23 62° ENE 20:58:40 10° N
Cosmos 2084 Rocket 3.5 20:52:13 10° NW 20:56:05 61° NE 21:00:03 10° SE
Cosmos 1703 3.3 20:52:42 10° S 20:56:30 63° E 21:00:19 10° NNE
RESURS DK-1 2.7 20:53:00 10° NW 20:57:07 64° WSW 21:01:12 10° SSE
Cosmos 1452 Rocket 3.5 20:54:03 10° SSW 20:59:18 85° ESE 21:04:36 10° NNE
Cosmos 1833 Rocket 2.8 20:54:01 10° S 20:59:30 58° ESE 21:05:01 10° NE
Terra 2.2 20:56:29 10° SE 21:01:06 52° ENE 21:05:44 10° N
CZ-4B R/B 2.4 20:58:52 10° N 21:01:37 40° WNW 21:04:20 10° SW
Helios 1A Rocket 2.9 21:01:06 10° SSE 21:05:10 73° ENE 21:09:17 10° N
Cosmos 1110 Rocket 4.1 21:00:07 10° S 21:05:18 64° ESE 21:10:34 10° NNE
FALCON 9 DEB 3.9 21:02:12 10° WNW 21:05:22 47° N 21:08:33 10° E
ERS-1 Rocket 3.0 21:02:37 10° SSE 21:07:38 75° ENE 21:12:40 10° NNW
Cosmos 2322 Rocket 4.3 21:03:51 10° N 21:07:38 18° NE 21:11:26 10° ENE
Resurs 01 Rocket 3.5 21:04:30 10° SSW 21:08:19 28° W 21:12:10 10° NW
Cosmos 2228 3.0 21:06:48 10° N 21:11:04 89° E 21:15:15 10° S
Cosmos 2058 Rocket 4.2 21:07:59 10° N 21:11:54 30° ENE 21:15:19 13° SE
Cosmos 2184 Rocket 4.2 21:08:48 10° NNW 21:14:59 76° W 21:21:11 10° S
Cosmos 1825 4.4 21:15:20 10° ESE 21:16:42 12° E 21:18:01 10° ENE
Lacrosse 5 4.0 21:14:18 10° W 21:17:20 16° WSW 21:20:20 10° SSW
Cosmos 1408 3.9 21:16:14 14° SE 21:18:08 22° E 21:20:51 10° NE
Cosmos 968 Rocket 3.7 21:17:06 10° NNW 21:22:16 61° ENE 21:26:36 15° SE
Cosmos 1328 3.9 21:22:05 12° S 21:25:46 58° E 21:29:42 10° NNE
USA 276 2.1 21:24:18 10° W 21:27:19 75° N 21:30:22 10° E
SJ 16-02 3.7 21:28:48 10° NNE 21:31:13 14° NE 21:33:37 10° E
Cosmos 1867 3.7 21:26:29 10° NW 21:31:59 74° NE 21:36:30 15° SE
Cosmos 2082 Rocket 2.5 21:27:55 10° S 21:33:21 46° ESE 21:38:47 10° NE
USA 267 4.0 21:31:25 10° ENE 21:37:03 30° SE 21:42:39 10° S
ARIANE 5 R/B 2.6 21:35:43 16° SSE 21:39:16 87° ENE 21:43:42 10° NNW
Cosmos 1606 Rocket 3.7 21:35:27 10° NNW 21:39:47 72° W 21:43:23 14° S
GP-B 3.8 21:36:35 10° NNE 21:40:46 40° E 21:43:35 19° SSE
Cosmos 2341 Rocket 4.2 21:35:48 10° N 21:42:06 65° ENE 21:47:01 17° SSE
Cosmos 2360 Rocket 4.2 21:39:37 10° N 21:43:47 20° NE 21:47:56 10° E
Meteor 1-21 Rocket 4.4 21:38:26 10° SSW 21:44:02 75° WNW 21:49:47 10° N
Cosmos 192 4.3 21:43:38 10° SSW 21:48:29 76° ESE 21:53:25 10° NNE
Okean 1-7 Rocket 4.3 21:58:40 22° SSE 22:01:04 39° E 22:05:16 10° NNE
SAR-Lupe-1 4.2 21:58:17 10° NNE 22:01:49 54° ESE 22:03:39 25° S
Cosmos 1726 Rocket 4.1 21:58:14 10° NNW 22:02:28 54° W 22:05:41 17° SSW
Cosmos 1892 2.6 22:02:06 23° S 22:04:17 67° E 22:08:03 10° NNE
Cosmos 2181 Rocket 4.1 22:07:21 19° S 22:11:49 64° E 22:18:00 10° NNE
USA 234 3.6 22:06:20 10° ESE 22:12:49 67° NNE 22:19:20 10° WNW
Cosmos 1633 3.9 22:12:09 20° ESE 22:13:01 22° E 22:15:46 10° NE
Cosmos 1697 Rocket 4.1 22:12:23 10° NW 22:17:05 28° WSW 22:21:16 12° SSW
Cosmos 1980 Rocket 2.7 22:11:38 10° NW 22:17:10 53° WSW 22:20:52 20° S
SL-16 R/B 2.8 22:11:42 10° NNW 22:17:16 52° NE 22:21:23 18° SE
Cosmos 1486 Rocket 4.0 22:12:36 10° NNW 22:17:51 79° ENE 22:21:05 24° SSE
Cosmos 1992 Rocket 4.1 22:15:18 21° S 22:18:42 56° ESE 22:23:50 10° NNE
X-37B 2.9 22:17:51 10° WSW 22:18:13 11° SW 22:18:13 11° SW
Cosmos 1812 Rocket 4.3 22:15:35 10° N 22:19:50 41° ENE 22:22:08 23° SE
Cosmos 1932 4.4 22:14:17 10° SSW 22:20:26 66° ESE 22:26:43 10° NE
Cosmos 2369 4.4 22:15:19 10° NW 22:20:44 45° WSW 22:24:30 19° S
Cosmos 2219 Rocket 4.5 22:16:53 10° N 22:20:48 19° NE 22:24:43 10° E
COSMOS 2406 3.9 22:21:54 10° SW 22:27:35 58° NW 22:33:16 10° NNE
Cosmos-2242 3.8 22:25:10 10° N 22:29:10 39° ENE 22:31:12 24° SE
ATLAS 5 CENTAUR R/B 1.3 22:29:23 26° SSW 22:31:14 56° SE 22:35:21 10° NE
Cosmos 1869 3.2 22:29:29 10° N 22:33:23 85° W 22:35:09 32° S
Cosmos 807 4.3 22:30:39 10° N 22:33:43 58° ENE 22:34:24 43° SE
Cosmos 1602 Rocket 3.9 22:32:12 29° SSE 22:34:01 48° E 22:38:11 10° NNE
In-Cosmos 22 Rocket 4.1 22:30:23 20° S 22:34:23 89° W 22:39:51 10° NNE
ERS-2 4.3 22:35:28 10° ENE 22:37:14 13° E 22:37:40 13° E
Terra 3.7 22:35:28 10° SW 22:39:09 22° W 22:42:51 10° NW
Meteor 1-27 4.3 22:33:39 10° NNW 22:39:12 73° W 22:42:35 24° S
FALCON 9 DEB 3.1 22:38:29 10° WNW 22:41:42 55° SSW 22:42:17 46° SSE
ALOS 2 3.2 22:39:48 25° SE 22:42:02 48° ENE 22:46:16 10° N
ASTEX 1 3.9 22:37:15 10° N 22:42:10 56° W 22:45:50 17° SSW
Cosmos 1354 Rocket 4.2 22:40:46 10° NNW 22:46:05 70° ENE 22:49:06 26° SE
BREEZE-M DEB (TANK) 3.5 22:44:50 10° W 22:47:55 86° S 22:59:17 10° ESE
SL-8 Rocket 4.5 22:42:43 10° NNW 22:48:45 53° W 22:53:01 19° SSW
Cosmos 2058 Rocket 4.4 22:45:58 10° NNW 22:49:53 31° W 22:52:35 17° SW
ADEOS Rocket 3.7 22:45:43 22° SSE 22:50:50 69° ENE 22:58:33 10° NNW
Cosmos 1825 2.4 22:49:40 28° SSW 22:51:29 62° WNW 22:55:13 10° N
Cosmos 1408 4.3 22:50:12 12° SW 22:52:42 26° WNW 22:55:39 10° NNW
Cosmos 2322 Rocket 2.4 22:47:08 10° NNW 22:52:48 67° ENE 22:56:24 23° SE
Cosmos 1503 Rocket 4.0 22:50:32 10° NNW 22:55:52 84° WSW 22:58:35 29° SSE
Cosmos 1626 Rocket 3.7 22:54:43 26° SSW 22:57:05 67° WNW 23:01:27 10° N
USA 276 2.2 23:00:05 10° W 23:02:50 52° SW 23:02:50 52° SW
Cosmos 1777 Rocket 4.2 22:58:37 10° NNW 23:03:54 65° ENE 23:06:53 26° SE
Cosmos 2333 Rocket 3.3 23:02:29 10° NNW 23:07:56 40° NE 23:12:52 12° ESE
Cosmos 1825 Rocket 3.9 23:08:17 33° SSE 23:09:48 49° E 23:14:00 10° NNE
SJ 16-02 1.3 23:06:01 10° NNW 23:10:29 88° ENE 23:12:19 35° SSE
Gbstr 26 Del rocket 3.9 23:11:09 31° SE 23:11:13 31° SE 23:15:35 10° ENE
Cosmos 1340 Rocket 3.8 23:13:04 29° SE 23:14:03 34° E 23:17:39 10° NNE
Meteor 2-20 4.4 23:13:52 26° S 23:17:32 87° W 23:23:39 10° N
Cosmos 2082 Rocket 3.6 23:12:19 10° WSW 23:17:35 37° NW 23:22:51 10° NNE
H-2A R/B 3.4 23:15:04 10° NNE 23:19:17 83° ESE 23:20:55 37° S
USA 267 3.2 23:14:04 10° ENE 23:20:39 85° SSE 23:27:12 10° SW
Cosmos 2221 3.4 23:22:11 10° N 23:26:19 40° ENE 23:28:17 25° SE
Cosmos 1606 2.7 23:23:16 10° NNW 23:27:08 70° W 23:28:16 42° SSW
Cosmos 2058 2.9 23:26:08 39° SSE 23:27:33 70° E 23:31:44 10° NNE
Cosmos 2360 Rocket 2.2 23:22:59 10° NNW 23:28:43 81° ENE 23:31:59 26° SE
Cosmos 1934 Rocket 4.0 23:23:34 10° N 23:29:40 73° E 23:33:06 28° SSE
Meteor 2-2 Rocket 4.4 23:35:22 10° NNW 23:41:25 83° W 23:44:36 30° S
Cosmos 44 3.7 23:41:21 35° SSE 23:42:27 41° ESE 23:46:39 10° NE
Cosmos 2237 4.5 23:38:43 10° NW 23:44:19 55° WSW 23:46:53 31° S
Cosmos 1633 4.2 23:45:56 19° WSW 23:47:24 26° WNW 23:50:22 10° NNW
Cosmos 1758 Rocket 4.5 23:45:44 23° SW 23:47:56 41° WNW 23:52:07 10° N
Cosmos 2237 Rocket 4.4 23:48:25 10° N 23:52:50 23° NE 23:57:14 10° E
Cosmos 1339 Rocket 4.5 23:50:04 29° S 23:53:22 76° E 23:59:31 10° NNE
